CAPE
0 0 2 210 485 200 0 10 1 0 0 0 0 0 0 0 9 0 0 0 27 372 492 364 293 464 478 437 410 356 412 437 461 518 595 556 475 296 193 137 105 126 188 220 180 94 90 131 197
27 255 197 63 3 0 0 6 1 0 0 0 0 0 0 0 0 0 0 0 23 323 399 230 188 484 600 580 466 367 445 503 557 645 664 623 484 296 217 171 206 195 173 176 173 220 264 258 287
33 435 249 308 6 1 0 0 0 0 1 2 0 1 0 0 0 0 0 18 197 285 0 0 537 515 771 871 888 722 689 772 810 741 793 603 502 378 283 274 309 291 266 217 184 193 235 285 335
171 0 89 109 29 17 14 0 0 0 0 0 0 0 0 0 0 5 38 233 554 829 750 807 718 935 795 966 1073 1023 824 977 593 726 487 555 562 411 361 297 186 105 96 123 204 211 173 187 205
55 1 2 76 3 31 17 6 24 17 26 42 25 6 0 1 37 62 235 348 429 743 1025 849 431 840 1072 1097 1014 861 692 662 661 400 365 316 289 193 98 55 0 0 1 1 59 116 123 148 136
5 0 5 18 15 18 41 17 63 76 74 107 172 278 98 257 372 367 366 316 237 136 302 1028 840 1109 1309 1149 982 933 762 609 372 190 121 114 62 0 0 0 0 0 0 0 0 0 0 0 0
30 0 0 262 112 26 80 107 62 140 147 222 5 331 547 360 469 172 118 3 0 0 0 0 1272 1408 1028 425 433 282 184 50 18 7 22 115 6 0 0 0 0 0 0 0 0 0 0 0 0
35 14 0 130 0 9 163 184 21 4 350 396 0 35 424 507 233 75 0 0 0 0 0 0 0 0 812 479 177 44 11 15 0 0 0 0 54 8 0 0 0 0 0 0 0 0 0 0 0
2 0 4 184 72 247 287 123 230 163 141 291 112 75 443 358 101 0 0 0 0 0 0 0 0 0 0 245 292 139 107 11 0 0 0 0 0 0 0 0 0 0 0 0 0 0 0 0 0
12 0 118 137 205 280 207 191 317 260 248 335 299 327 242 49 0 0 0 0 0 0 0 0 0 0 0 0 7 12 0 10 3 0 0 0 0 0 0 0 0 0 0 0 0 0 0 0 0
176 203 138 144 329 283 211 91 353 449 402 443 301 315 27 0 0 0 0 0 0 0 0 0 0 0 0 0 0 0 0 3 0 0 0 0 1 0 0 0 0 0 0 0 0 0 0 0 0
151 189 204 298 349 182 271 218 418 484 624 494 456 86 0 0 0 0 0 0 0 0 0 0 0 0 0 0 0 0 0 0 1 0 0 0 2 0 0 1 0 0 0 0 0 0 0 0 0
60 186 279 255 177 324 440 512 607 548 659 651 326 3 0 0 0 0 0 0 0 0 0 0 0 0 0 0 0 0 0 0 1 0 0 0 0 0 0 7 0 0 0 0 1 2 0 0 0
182 273 296 251 193 375 530 518 501 628 662 578 251 9 0 0 0 0 0 0 0 0 0 0 0 0 0 0 0 0 0 0 0 0 0 0 0 0 0 6 1 0 0 4 1 0 5 3 2
292 23 1 152 163 412 524 508 361 555 642 458 264 117 0 0 0 0 0 0 0 0 0 0 0 0 0 0 0 0 0 0 0 2 0 0 0 0 0 8 0 0 5 4 0 0 0 0 4
38 17 44 133 201 289 32 224 499 479 507 360 333 201 11 0 0 0 0 0 0 0 0 0 0 0 0 0 0 0 0 0 0 1 0 0 0 0 0 9 1 0 21 0 0 0 0 0 5
18 44 64 204 163 265 225 345 659 478 462 431 358 248 110 7 0 0 0 0 0 0 0 0 0 0 0 0 0 0 0 0 0 0 0 0 0 0 0 9 9 0 17 0 0 0 0 0 0
75 100 151 230 139 78 284 691 751 408 466 482 393 397 279 150 18 0 0 0 0 0 0 0 0 0 0 0 0 0 0 0 2 0 0 0 0 0 0 1 7 0 10 5 0 0 0 0 2
40 0 1 26 117 5 129 361 838 480 326 325 305 586 134 217 120 7 0 0 0 0 0 0 0 0 0 0 0 0 0 0 2 1 0 0 0 0 1 0 0 0 13 0 0 7 0 3 0
0 3 1 49 169 12 265 143 733 624 404 240 360 281 216 208 378 102 0 0 0 0 0 0 0 0 0 0 0 0 0 0 0 1 4 0 0 0 0 0 0 0 9 0 0 0 5 0 0
0 3 2 6 0 85 230 90 336 470 467 251 212 333 148 163 431 340 17 0 0 0 0 0 0 0 0 0 0 0 6 6 0 1 1 2 0 0 0 0 3 0 6 0 2 3 2 0 0
6 0 22 66 111 3 35 70 552 512 312 313 330 298 300 215 290 454 103 12 0 0 0 0 0 0 0 0 0 0 0 0 7 0 0 5 2 0 0 0 4 0 15 4 2 6 4 3 5
0 0 22 4 199 18 0 37 667 724 626 546 413 316 166 150 206 320 165 63 52 0 0 0 0 0 0 0 0 0 0 0 3 0 4 4 19 4 0 0 1 1 4 0 2 9 11 15 3
0 8 47 37 86 0 0 39 243 344 127 2 533 369 169 137 142 260 96 54 29 0 0 0 0 0 0 0 0 0 0 0 0 0 5 0 8 14 0 0 3 7 3 7 4 10 4 2 16
4 58 52 60 135 26 38 28 49 1 0 0 37 329 175 67 181 250 77 53 15 0 0 0 0 0 0 0 0 0 0 0 1 4 0 1 1 9 0 0 0 6 9 12 11 10 7 2 15
6 18 32 2 0 98 44 2 0 19 57 48 36 82 195 151 114 314 216 146 62 8 0 0 0 0 0 0 0 0 0 0 2 0 0 4 9 9 12 0 2 8 15 3 11 17 13 11 0
22 57 58 17 72 83 15 11 0 26 50 82 38 59 169 246 227 426 284 170 34 34 6 0 0 0 0 0 0 0 0 0 0 0 0 0 2 4 10 9 3 2 15 2 7 14 22 11 2
3 5 23 25 0 23 30 64 25 35 17 74 134 172 137 227 310 294 259 184 10 87 23 0 0 0 0 0 0 0 0 0 0 0 5 5 1 8 11 11 12 7 9 8 11 15 22 14 10
0 0 57 0 0 29 10 65 48 84 12 50 103 250 281 287 337 284 476 170 33 69 20 0 0 0 0 0 0 0 0 0 0 0 3 7 3 9 16 11 17 15 9 19 9 11 24 14 3
0 52 101 48 55 23 86 91 15 14 88 0 49 228 214 254 353 430 434 211 138 69 5 0 0 0 0 0 0 0 0 0 0 0 3 3 2 2 8 13 10 22 8 26 16 9 22 16 2
CIN
-0 -0 -264 -187 -31 -17 -0 -3 -7 -0 -0 -0 -0 -0 -0 -0 -51 -0 -0 -0 -6 -13 -100 -118 -130 -111 -96 -99 -78 -77 -53 -39 -34 -21 -6 -6 -10 -27 -39 -45 -45 -38 -19 -13 -11 -15 -12 -9 -8
-430 -269 -145 -158 -93 -2 -0 -3 -0 -0 -0 -0 -0 -0 -0 -0 -0 -0 -0 -0 -15 -10 -34 -50 -134 -107 -94 -83 -78 -68 -50 -39 -22 -5 -1 -0 -1 -13 -37 -41 -32 -32 -22 -15 -10 -6 -5 -5 -1
-431 -148 -33 -28 -8 -2 -0 -0 -0 -0 -1 -3 -0 -10 -0 -0 -0 -0 -0 -13 -123 -88 -0 -0 -85 -98 -58 -30 -14 -15 -11 -0 -0 -0 -0 -0 -0 -7 -19 -15 -7 -13 -15 -17 -5 -7 -3 -0 -0
-39 -0 -108 -32 -32 -46 -4 -0 -0 -0 -0 -0 -0 -0 -0 -0 -0 -22 -15 -4 -57 -76 -130 -41 -83 -81 -66 -26 -2 -0 -0 -0 -0 -0 -2 -0 -0 -0 -11 -2 -11 -13 -9 -3 -0 -0 -0 -3 -9
-227 -40 -142 -17 -71 -43 -9 -14 -3 -11 -5 -34 -49 -10 -0 -14 -115 -77 -9 -1 -10 -28 -28 -39 -78 -79 -60 -14 -2 -10 -1 -0 -0 -3 -15 -31 -9 -12 -12 -30 -0 -0 -0 -0 -25 -7 -7 -12 -28
-201 -0 -190 -26 -10 -49 -30 -27 -3 -26 -91 -40 -25 -6 -21 -1 -0 -2 -1 -2 -19 -22 -35 -19 -66 -67 -52 -23 -15 -9 -6 -2 -9 -31 -38 -47 -99 -0 -0 -0 -0 -0 -0 -0 -0 -0 -0 -0 -0
-32 -0 -0 -35 -75 -175 -8 -19 -51 -27 -52 -50 -263 -8 -1 -1 -4 -10 -48 -1 -0 -0 -0 -0 -28 -44 -48 -64 -51 -57 -73 -198 -247 -285 -222 -89 -127 -0 -0 -0 -0 -0 -0 -0 -0 -0 -0 -0 -0
-29 -144 -0 -71 -0 -160 -3 -16 -91 -76 -24 -80 -0 -13 -1 -0 -2 -30 -1 -0 -0 -0 -0 -0 -0 -0 -26 -75 -125 -222 -306 -261 -0 -0 -0 -2 -192 -7 -0 -0 -0 -0 -0 -0 -0 -0 -0 -0 -0
-87 -18 -43 -44 -82 -3 -2 -10 -4 -11 -13 -50 -126 -149 -3 -7 -18 -0 -0 -0 -0 -0 -0 -0 -0 -0 -0 -75 -80 -184 -173 -6 -0 -0 -0 -0 -0 -0 -0 -0 -0 -0 -0 -0 -0 -0 -0 -0 -0
-116 -0 -29 -8 -2 -5 -4 -38 -16 -8 -4 -1 -24 -25 -27 -7 -0 -0 -0 -0 -0 -0 -0 -0 -0 -0 -0 -0 -29 -2 -0 -2 -5 -0 -0 -0 -0 -0 -0 -0 -0 -0 -0 -0 -0 -0 -0 -0 -0
-25 -20 -17 -39 -2 -13 -40 -48 -6 -19 -7 -7 -2 -1 -20 -0 -0 -0 -0 -0 -0 -0 -0 -0 -0 -0 -0 -0 -0 -0 -0 -1 -0 -0 -0 -0 -0 -0 -0 -0 -0 -0 -0 -0 -0 -0 -0 -0 -0
-3 -6 -28 -19 -5 -21 -27 -47 -1 -3 -7 -3 -1 -77 -0 -0 -0 -0 -0 -0 -0 -0 -0 -0 -0 -0 -0 -0 -0 -0 -0 -0 -0 -0 -0 -0 -2 -0 -0 -1 -0 -0 -0 -0 -0 -0 -0 -0 -0
-7 -25 -45 -27 -36 -33 -22 -23 -45 -64 -49 -27 -46 -154 -0 -0 -0 -0 -0 -0 -0 -0 -0 -0 -0 -0 -0 -0 -0 -0 -0 -0 -0 -0 -0 -0 -0 -0 -0 -4 -0 -0 -0 -0 -0 -2 -0 -0 -1
-2 -19 -55 -43 -48 -27 -43 -60 -67 -86 -85 -71 -60 -164 -0 -0 -0 -0 -0 -0 -0 -0 -0 -0 -0 -0 -0 -0 -0 -0 -0 -0 -0 -1 -0 -0 -0 -0 -0 -4 -1 -0 -0 -3 -1 -0 -4 -2 -2
-121 -99 -106 -84 -40 -29 -54 -47 -57 -92 -74 -48 -56 -126 -0 -0 -0 -0 -0 -0 -0 -0 -0 -0 -0 -0 -0 -0 -0 -0 -0 -0 -0 -0 -0 -0 -0 -0 -0 -4 -0 -0 -23 -4 -0 -0 -0 -4 -4
-202 -301 -139 -35 -36 -112 -108 -152 -82 -112 -62 -38 -62 -98 -94 -0 -0 -0 -0 -0 -0 -0 -0 -0 -0 -0 -0 -0 -0 -0 -0 -0 -0 -1 -0 -0 -0 -0 -0 -3 -0 -0 -4 -0 -0 -0 -0 -0 -10
-314 -137 -83 -8 -20 -55 -131 -75 -99 -123 -67 -56 -62 -96 -128 -93 -0 -0 -0 -0 -0 -0 -0 -0 -0 -0 -0 -0 -0 -0 -0 -0 -0 -0 -0 -0 -0 -0 -0 -1 -1 -0 -1 -7 -0 -0 -0 -0 -0
-14 -34 -27 -7 -9 -46 -3 -20 -104 -129 -77 -23 -42 -45 -63 -87 -127 -0 -0 -0 -0 -0 -0 -0 -0 -0 -0 -0 -0 -0 -0 -0 -1 -0 -0 -0 -0 -0 -0 -0 -2 -0 -7 -19 -0 -0 -0 -0 -1
-3 -0 -86 -14 -43 -21 -4 -5 -57 -115 -118 -72 -36 -16 -83 -66 -80 -97 -0 -0 -0 -0 -0 -0 -0 -0 -0 -0 -0 -0 -0 -0 -1 -2 -0 -0 -0 -0 -2 -0 -1 -0 -1 -0 -0 -2 -0 -4 -3
-0 -5 -4 -10 -34 -91 -2 -14 -15 -75 -103 -89 -35 -15 -39 -65 -43 -123 -17 -0 -0 -0 -0 -0 -0 -0 -0 -0 -0 -0 -0 -0 -0 -2 -7 -0 -0 -0 -0 -0 -0 -0 -8 -0 -0 -0 -4 -0 -0
-0 -16 -1 -3 -0 -49 -48 -22 -6 -54 -69 -67 -64 -50 -51 -66 -40 -91 -169 -0 -0 -0 -0 -0 -0 -0 -0 -0 -0 -0 -3 -7 -0 -0 -7 -0 -0 -0 -0 -0 -1 -0 -7 -0 -5 -10 -10 -0 -0
-25 -0 -6 -3 -2 -65 -66 -6 -17 -54 -89 -74 -47 -30 -22 -51 -56 -33 -105 -135 -0 -0 -0 -0 -0 -0 -0 -0 -0 -0 -0 -0 -1 -0 -0 -1 -6 -0 -0 -0 -0 -0 -2 -15 -7 -11 -9 -11 -2
-0 -0 -34 -48 -37 -141 -0 -164 -8 -8 -4 -24 -52 -54 -50 -28 -57 -54 -75 -119 -144 -0 -0 -0 -0 -0 -0 -0 -0 -0 -0 -0 -3 -0 -3 -0 -6 -24 -0 -0 -0 -4 -2 -0 -5 -10 -16 -4 -6
-0 -17 -33 -39 -62 -0 -0 -150 -19 -32 -12 -10 -21 -32 -49 -36 -32 -31 -65 -107 -141 -0 -0 -0 -0 -0 -0 -0 -0 -0 -0 -0 -0 -0 -8 -0 -2 -14 -0 -0 -1 -1 -2 -2 -6 -2 -7 -4 -8
-13 -9 -7 -35 -12 -26 -17 -26 -3 -9 -0 -0 -8 -15 -57 -95 -20 -45 -99 -111 -222 -0 -0 -0 -0 -0 -0 -0 -0 -0 -0 -0 -3 -5 -0 -1 -1 -4 -0 -0 -0 -1 -2 -2 -4 -8 -10 -6 -6
-21 -33 -23 -20 -0 -6 -49 -15 -0 -44 -62 -118 -76 -43 -13 -51 -10 -30 -67 -125 -189 -190 -0 -0 -0 -0 -0 -0 -0 -0 -0 -0 -1 -0 -0 -12 -7 -2 -5 -0 -1 -2 -1 -6 -6 -4 -4 -8 -0
-30 -33 -6 -4 -2 -3 -36 -57 -6 -37 -12 -64 -55 -58 -26 -11 -4 -10 -51 -59 -122 -149 -200 -0 -0 -0 -0 -0 -0 -0 -0 -0 -0 -0 -0 -0 -3 -5 -5 -2 -2 -0 -3 -2 -3 -4 -9 -12 -8
-14 -5 -20 -25 -0 -37 -61 -33 -116 -12 -15 -4 -24 -33 -42 -33 -14 -6 -55 -80 -155 -133 -176 -0 -0 -0 -0 -0 -0 -0 -0 -0 -0 -0 -5 -9 -3 -8 -7 -2 -1 -2 -1 -6 -5 -6 -9 -17 -12
-0 -0 -22 -0 -0 -18 -3 -20 -33 -58 -26 -38 -0 -9 -26 -15 -3 -4 -34 -173 -168 -132 -147 -0 -0 -0 -0 -0 -0 -0 -0 -0 -0 -0 -1 -8 -7 -10 -10 -10 -2 -1 -3 -4 -5 -4 -12 -10 -9
-0 -8 -30 -20 -44 -28 -15 -13 -101 -71 -96 -8 -9 -2 -11 -18 -4 -5 -30 -148 -145 -91 -112 -0 -0 -0 -0 -0 -0 -0 -0 -0 -0 -0 -0 -1 -4 -8 -6 -6 -11 -5 -6 -5 -3 -6 -5 -13 -14
Wind_Speed
20 18 16 15 14 17 24 23 21 23 22 25 25 26 24 22 19 18 18 19 20 20 20 21 20 19 18 19 19 19 19 19 20 21 22 24 26 27 28 29 29 28 28 28 28 27 27 27 27
17 14 15 17 20 24 24 24 25 22 21 26 26 26 26 25 25 21 19 20 19 20 21 23 18 17 17 17 18 18 18 18 19 20 22 24 25 26 28 29 29 29 30 29 29 28 27 28 28
15 14 18 10 25 24 23 22 23 22 19 21 23 23 23 22 21 21 21 19 24 20 14 15 17 17 16 17 17 17 17 18 18 20 21 24 25 26 27 28 29 30 31 30 30 30 29 29 30
13 24 16 19 26 24 23 20 20 20 19 21 22 23 22 20 21 22 22 23 23 20 21 14 22 20 16 17 18 19 18 18 20 21 23 25 26 27 28 28 30 30 31 31 31 30 30 30 29
26 22 13 24 27 26 27 24 20 19 20 20 22 22 20 20 22 22 23 24 25 21 22 21 22 19 19 19 20 20 20 21 22 23 24 25 25 26 26 28 30 30 30 30 30 29 29 29 29
21 27 13 19 26 25 24 22 21 22 18 19 22 20 22 22 22 24 24 24 25 24 24 22 22 21 22 21 22 24 23 23 23 23 23 23 23 24 25 26 29 31 31 31 30 30 30 29 29
5 14 21 24 22 6 26 22 19 17 12 20 20 21 22 22 22 22 25 28 27 27 27 28 21 21 22 22 24 26 24 24 24 24 23 22 20 22 24 24 30 31 29 30 29 29 29 29 27
20 15 8 25 24 15 25 27 22 20 22 21 18 14 18 20 21 22 24 27 28 28 28 28 27 23 19 21 25 25 25 24 24 24 27 22 14 26 30 25 29 29 30 29 28 28 27 26 26
26 9 14 26 25 25 24 26 22 15 17 22 23 22 21 21 23 23 24 27 26 28 29 29 28 25 23 21 23 22 22 26 27 30 30 29 28 28 24 23 25 25 27 26 28 28 27 28 24
27 18 23 27 27 27 27 27 23 22 19 21 22 22 21 22 22 23 24 25 28 28 29 29 28 27 27 24 23 23 26 25 26 29 28 27 26 28 28 27 21 27 25 29 31 30 30 32 31
25 24 26 26 26 24 24 25 27 26 22 23 23 23 22 22 22 23 25 27 28 29 29 30 29 28 27 26 25 24 26 26 27 28 30 27 26 27 28 28 28 29 31 30 29 29 29 29 28
21 23 24 24 25 25 25 24 23 24 25 23 22 22 22 23 23 24 26 27 28 30 30 29 28 28 26 27 25 25 25 25 26 27 30 29 28 29 29 28 29 30 31 29 29 29 31 29 27
17 24 25 24 25 25 26 26 24 21 22 22 21 21 22 22 23 24 25 26 28 30 29 29 28 26 25 26 25 24 24 25 25 27 29 28 28 30 28 26 29 31 28 29 29 30 28 27 26
20 23 23 23 25 24 23 24 23 21 20 20 19 20 20 21 22 23 24 25 26 28 29 27 27 27 26 25 22 25 23 25 25 26 27 28 29 30 28 27 30 31 27 29 31 32 29 26 24
12 9 10 20 22 22 22 18 19 19 18 18 18 19 19 20 21 21 22 23 26 27 28 28 26 26 26 25 25 25 24 24 25 25 28 29 29 31 30 28 31 30 28 32 33 33 31 27 23
15 8 14 22 20 20 21 15 16 17 17 16 16 16 16 18 19 18 19 20 23 25 26 26 25 24 23 23 23 23 22 23 24 26 28 30 30 32 30 30 31 32 29 31 33 30 26 25 27
14 16 16 20 18 15 14 13 15 15 15 14 14 14 13 14 16 16 16 19 20 23 25 26 25 24 21 21 19 22 22 22 22 25 28 29 29 31 30 31 31 31 29 30 31 29 26 26 29
15 7 16 19 16 14 11 14 15 15 12 11 12 11 13 11 12 14 16 17 18 21 23 24 24 22 19 21 19 22 21 22 22 25 26 28 29 31 30 29 30 30 30 30 31 30 29 23 27
24 23 18 4 16 14 10 13 11 12 11 11 12 11 11 10 16 14 14 14 15 18 21 22 23 22 20 23 24 23 23 23 22 23 25 27 28 29 29 28 31 29 29 32 33 31 31 26 31
22 18 10 9 13 17 13 14 10 10 9 10 11 10 9 12 14 13 13 14 13 16 18 21 22 23 22 22 22 19 20 20 22 23 24 26 27 28 28 29 31 27 27 32 31 32 30 28 30
23 25 16 19 7 7 6 13 8 10 10 9 8 9 9 11 10 12 12 12 12 14 16 18 20 21 22 20 21 21 17 18 24 24 26 23 25 26 27 28 27 29 29 31 30 29 30 28 26
22 7 15 23 27 26 25 14 9 10 10 8 8 8 8 9 9 10 11 13 13 14 15 16 18 19 20 21 21 20 20 23 23 23 24 20 21 23 27 28 27 29 28 29 29 27 26 25 27
19 27 22 22 30 23 16 8 14 11 8 6 6 7 7 8 8 9 10 11 12 13 13 16 17 18 19 19 20 21 22 23 24 25 20 23 20 24 27 27 27 28 27 27 26 25 26 25 24
25 21 20 6 13 23 10 7 13 13 15 17 7 8 7 9 8 10 11 13 13 14 13 14 15 17 17 17 18 19 20 21 20 21 20 23 23 23 27 26 25 25 26 25 26 23 26 25 24
24 30 13 24 18 20 21 10 16 20 22 19 15 8 8 9 7 9 10 10 12 11 13 12 14 15 16 16 16 18 18 18 16 19 24 22 24 24 25 24 23 23 23 25 25 22 25 26 21
22 17 22 21 28 27 25 20 15 19 18 19 19 14 8 7 7 7 7 8 9 10 12 12 14 15 14 15 16 17 17 18 19 23 22 22 19 23 22 23 22 21 23 26 23 22 23 21 22
16 17 24 29 27 17 22 12 19 23 15 19 18 16 10 6 7 8 7 8 10 10 11 11 12 14 15 15 15 15 15 17 17 18 18 20 23 22 24 21 20 19 19 21 21 21 20 21 18
2 23 28 20 25 30 17 27 20 8 19 20 19 16 13 10 9 9 8 9 9 9 11 10 12 13 14 14 14 13 15 14 16 17 15 17 19 18 18 18 19 17 16 16 18 18 17 15 14
22 14 21 18 19 21 30 29 23 29 21 28 28 14 12 9 8 6 8 9 8 9 9 9 11 13 13 13 14 15 15 14 15 16 17 17 18 16 16 17 16 17 15 14 17 16 15 14 14
12 27 24 22 21 27 24 20 22 20 25 17 1 14 11 10 9 10 7 9 9 9 8 8 10 11 12 12 13 14 13 13 14 14 15 18 16 15 15 16 16 17 14 13 14 14 13 13 14
Wind_Direction
163 161 164 179 195 123 31 47 33 39 31 37 37 40 35 20 20 40 62 53 42 50 55 49 48 48 45 41 37 39 39 37 34 29 21 14 6 359 350 338 331 324 322 322 321 321 318 317 314
176 174 156 133 125 52 40 51 57 52 54 69 58 46 34 40 50 58 48 48 51 46 32 26 54 54 51 44 42 41 38 36 31 27 20 14 8 -0 351 341 334 327 324 321 323 320 321 317 316
179 206 199 197 51 47 52 50 59 68 58 52 44 33 37 36 27 48 60 68 36 52 42 45 56 48 45 41 40 42 37 35 31 25 18 9 4 360 356 351 345 337 330 329 327 323 320 318 314
277 310 214 157 41 33 41 39 60 60 54 56 58 33 34 29 39 41 37 38 45 49 46 72 47 46 47 38 35 29 28 29 23 17 10 6 2 357 355 352 347 343 340 335 330 327 324 322 318
32 112 153 85 62 54 48 59 41 36 38 44 44 41 35 38 45 42 35 21 31 43 48 44 40 46 40 37 30 26 23 20 13 11 9 5 4 3 1 356 351 348 345 342 338 335 331 326 322
56 50 158 111 50 59 35 33 50 44 30 23 38 33 48 61 40 41 38 39 32 34 34 37 36 40 37 36 31 23 21 19 15 13 15 15 16 14 9 4 356 349 343 339 338 334 331 329 326
98 52 172 44 15 249 38 48 34 6 20 39 59 98 60 46 54 59 45 28 28 23 20 20 40 38 40 40 34 26 25 21 19 19 18 20 22 19 14 10 360 353 351 345 343 338 334 332 331
355 340 295 44 48 107 54 39 48 61 53 54 67 56 62 68 59 49 41 28 22 21 17 15 14 29 46 38 32 33 31 28 25 22 7 16 24 8 356 6 2 4 358 356 355 352 348 344 338
16 354 113 58 77 62 54 42 38 2 18 33 70 81 66 50 22 29 37 35 35 29 22 18 15 20 23 37 31 35 40 27 17 5 1 5 9 6 14 15 14 15 9 7 1 358 355 347 348
42 121 56 52 58 52 50 54 66 53 43 45 49 56 65 48 50 48 47 43 36 33 29 25 23 15 13 20 30 29 17 25 25 17 13 14 16 10 8 10 25 12 15 1 354 354 350 343 341
57 59 47 42 48 51 58 49 84 69 52 75 78 70 64 65 62 55 43 34 33 31 27 22 20 16 10 19 22 22 20 21 22 21 16 18 19 13 11 10 6 3 356 0 359 356 356 351 350
16 25 28 38 29 36 56 65 63 73 83 83 65 72 70 63 57 55 40 33 30 23 20 22 23 25 25 21 26 23 27 24 24 23 17 19 21 11 9 11 7 4 1 4 3 1 354 353 351
39 58 61 39 46 60 61 56 67 50 67 74 78 78 70 74 66 49 44 37 29 22 24 25 29 30 32 26 25 30 28 27 27 26 22 25 20 13 10 14 7 4 8 5 4 2 0 359 357
88 55 76 58 74 74 57 78 86 96 79 73 79 74 74 66 68 55 42 39 36 32 28 31 30 27 25 31 37 29 32 28 26 27 24 23 20 13 15 16 8 4 12 7 3 359 2 5 6
329 204 227 90 74 80 84 101 76 99 97 85 82 86 80 78 62 58 50 46 38 36 32 25 28 27 23 26 24 28 30 31 29 29 21 21 21 13 12 15 10 10 11 5 358 356 0 10 13
90 206 186 105 93 77 50 149 96 109 110 91 98 93 89 73 66 66 62 52 42 37 36 36 31 29 31 28 33 34 41 37 32 25 20 18 18 15 12 13 10 6 12 7 3 5 13 11 9
106 96 141 82 86 97 101 132 138 119 114 98 97 95 93 89 76 76 71 56 47 40 37 36 37 35 36 37 42 38 40 40 37 26 20 17 20 17 16 14 12 9 15 15 9 8 13 11 4
79 334 97 49 77 70 140 73 99 112 118 92 97 91 94 98 95 90 76 59 53 46 42 42 40 42 47 39 41 36 40 35 37 28 22 18 21 20 23 21 19 18 20 17 11 8 6 17 9
345 331 276 100 49 61 72 35 91 100 100 81 64 92 81 91 86 90 84 76 61 56 46 44 43 44 45 31 27 27 26 31 32 33 26 21 21 24 27 26 19 21 23 19 10 9 5 14 5
321 64 230 153 65 29 27 18 102 89 81 83 89 98 93 90 86 83 81 84 79 58 55 47 42 41 41 38 34 38 37 36 34 31 30 25 23 25 26 26 23 30 26 18 17 9 10 10 8
336 302 274 289 215 62 78 212 64 63 86 93 100 111 105 104 96 89 85 90 90 69 58 49 44 43 41 43 35 32 43 36 22 26 21 28 27 28 28 27 28 26 26 23 23 19 13 16 20
338 148 259 304 304 323 305 343 61 70 65 74 94 102 116 108 95 97 89 86 83 68 61 53 46 44 41 37 37 39 36 28 26 25 24 33 33 32 27 27 27 26 30 28 28 28 26 22 17
272 317 324 306 338 358 258 51 67 61 48 85 105 106 99 88 107 106 101 96 84 71 63 51 45 44 41 42 37 34 30 24 20 21 30 27 36 29 26 26 28 28 31 33 33 34 30 29 26
307 360 8 34 28 37 154 77 47 67 40 26 104 103 96 81 100 94 109 88 71 68 62 50 45 39 40 40 39 37 34 31 32 28 29 23 25 28 21 25 30 31 31 32 33 38 32 28 28
272 318 21 2 21 10 31 31 18 22 19 27 32 90 89 61 78 90 76 71 68 67 55 51 42 35 35 37 37 35 34 34 35 28 17 21 20 22 20 26 30 32 32 33 33 37 34 31 35
1 9 359 9 357 347 5 7 17 4 28 43 30 31 92 83 66 85 81 73 77 73 53 44 39 32 35 32 31 32 31 28 27 21 20 21 24 21 25 24 28 31 31 26 31 36 34 36 36
4 0 349 337 347 347 354 33 7 354 26 23 27 31 45 71 58 69 80 85 64 64 47 44 38 34 31 30 29 30 31 27 26 25 27 20 16 19 17 24 25 29 32 30 32 32 34 34 39
40 343 339 3 351 346 294 358 358 40 17 17 19 24 32 46 40 25 87 73 55 51 42 41 38 34 30 29 29 27 27 27 25 23 25 22 20 23 24 25 25 27 30 34 33 33 32 35 39
344 273 358 4 351 348 341 358 17 354 9 4 354 18 32 40 29 48 70 61 52 46 48 47 38 32 27 28 25 22 19 21 21 21 21 20 18 22 24 26 25 28 29 33 30 32 32 33 31
10 327 1 345 339 338 345 -0 360 348 350 5 291 24 34 32 45 60 65 57 46 44 35 38 32 25 24 26 25 21 20 20 17 16 16 12 18 22 24 24 26 24 28 32 28 27 30 29 28